Regional Weather Roundup
Issued by NWS Kansas City/Pleasant Hill, MO

Home | Current Version | Previous Version | Text Only | Print | Product List | Glossary On
Versions: 1 2 3 4 5 6 7 8 9 10 11 12 13 14 15 16 17 18 19 20 21 22 23 24 25 26 27 28 29 30 31 32 33 34 35 36 37 38 39 40 41 42 43 44 45 46 47 48 49 50
000
ASUS43 KEAX 151910
RWREAX

WEATHER ROUNDUP FOR EASTERN KANSAS AND NORTHWEST MISSOURI
NATIONAL WEATHER SERVICE KANSAS CITY/PLEASANT HILL MO
200 PM CDT TUE APR 15 2014

KSZ040-057-103>105-MOZ028-029-037-043-152000-
...KANSAS CITY METROPOLITAN AREA...

CITY           SKY/WX    TMP DP  RH WIND       PRES   REMARKS
K.C. INTL      MOSUNNY   50  21  32 S6        30.17F
K.C. DOWNTOWN  SUNNY     52  21  29 VRB5      30.17F
LEES SUMMIT    SUNNY     48  21  34 E3        30.17F
OLATHE - IXD   SUNNY     50  24  36 S9        30.18F
OLATHE - OJC   SUNNY     49  24  37 VRB7      30.17F
LAWRENCE       SUNNY     51  21  30 SW5       30.16F

$$

MOZ001>008-011>017-020>025-030>033-038>040-044>046-053-054-152000-
...NORTHERN AND CENTRAL MISSOURI...

CITY           SKY/WX    TMP DP  RH WIND       PRES   REMARKS
ST. JOSEPH     SUNNY     48  21  34 S8        30.16F
MOSBY          FAIR      46  21  36 CALM      30.18F
WHITEMAN AFB   SUNNY     47  22  36 W9        30.19F
CLINTON        SUNNY     48  28  46 S5        30.21F
SEDALIA        MOSUNNY   47  25  42 SW8       30.21F
WARSAW         NOT AVBL
MARSHALL         N/A     46  28  49 SW8       30.23
CHILLICOTHE      N/A     47  19  33 CALM      30.19F
MOBERLY        MOSUNNY   45  21  39 W8        30.21S
KIRKSVILLE     SUNNY     46  17  31 W12G18    30.19S

$$

MOZ041-047>049-056>058-063>065-088>090-097-152000-
...EASTERN AND SOUTHERN MISSOURI...

CITY           SKY/WX    TMP DP  RH WIND       PRES   REMARKS
ST. LOUIS INTL MOSUNNY   46  20  35 N9        30.21F
SPIRIT OF STL  MOSUNNY   46  20  35 VRB7      30.21F
COLUMBIA       MOSUNNY   46  22  38 NW10      30.21S
JEFFERSON CITY SUNNY     45  20  36 NW9       30.22F
MEXICO         SUNNY     43  23  45 MISG      30.20F
HANNIBAL       MOSUNNY   46  12  25 W7        30.20S
ROLLA          MOSUNNY   45  22  40 NW10      30.19S
LEBANON        SUNNY     48  21  34 N7        30.20F
OSAGE BEACH    MOSUNNY   46  19  34 W3G17     30.23S
SPRINGFIELD    SUNNY     48  24  39 SW8       30.19F
BRANSON        MOSUNNY   46  19  34 CALM      30.22F
JOPLIN         SUNNY     52  23  32 VRB6      30.20F
WEST PLAINS    SUNNY     49  22  34 NW14      30.20F
MALDEN         SUNNY     50  19  29 NW10G18   30.23F

$$

IAZ060-094-KSZ022-034>040-054-083-096-NEZ052-066-093-152000-
...KANSAS...SOUTHEAST NEBRASKA AND IOWA...

CITY           SKY/WX    TMP DP  RH WIND       PRES   REMARKS
TOPEKA         SUNNY     53  25  33 S10       30.15F
MANHATTAN      SUNNY     57  24  28 SW12G22   30.09F
EMPORIA        SUNNY     55  22  27 SW12G22   30.13F
CHANUTE        SUNNY     53  26  35 S9        30.18F
WICHITA        MOSUNNY   58  20  22 SW14G22   30.12F
OMAHA          MOSUNNY   45  17  32 SE14      30.10F
LINCOLN        SUNNY     51  24  34 S16G24    30.07F
FALLS CITY     SUNNY     50  23  34 S10G16    30.12F
LAMONI         SUNNY     43  15  32 VRB5      30.15F
DES MOINES     MOSUNNY   39  18  42 VRB6      30.16F WCI  35

$$




USA.gov is the U.S. government's official web portal to all federal, state and local government web resources and services.